Theta_e
324 326 327 336 344 346 347 347 347 347 348 347 348 348 348 348 348 348 348 348 348 348 348 348 348 348 348 348 348 348 348 348 347 348 349 348 348 348 348 347 348 348 348 348 348 349 349 349 349 348 349 349 350 350 350 350 350 349 349 349 348 346 344 344 343 343 343 346 347 347 347 349 352 352 352 352 351 352 352 352 351 349 348 349 350
324 325 327 328 346 346 347 347 347 347 347 348 347 347 347 347 347 347 347 348 348 347 348 348 348 348 348 347 348 348 348 347 348 348 347 347 347 348 347 348 348 348 347 348 347 348 348 348 349 348 349 349 349 348 349 348 348 348 347 347 346 344 342 341 341 341 343 344 344 344 343 345 348 351 352 351 352 352 349 349 349 348 345 350 351
324 323 326 329 345 346 346 346 347 347 346 347 347 346 346 347 346 347 347 346 347 347 347 347 346 348 347 348 348 347 348 346 346 346 346 345 345 346 347 347 347 346 346 347 347 347 347 347 347 346 346 346 346 346 346 346 346 346 345 345 343 341 338 337 338 340 342 342 342 340 340 340 342 347 350 351 352 350 348 348 348 348 345 349 350
323 325 324 331 341 345 345 346 346 346 346 346 346 346 346 346 346 346 346 346 347 347 347 346 346 347 346 346 346 346 346 346 344 344 344 344 343 343 344 345 346 346 345 346 345 345 346 346 345 343 341 341 342 342 342 343 343 343 342 341 339 336 333 333 334 336 340 339 339 338 336 333 336 344 352 351 351 350 348 348 349 348 348 347 350
324 323 323 328 332 339 344 344 345 344 344 345 345 345 346 345 345 345 345 346 346 346 345 345 344 343 344 344 344 343 343 343 343 342 342 342 342 342 342 342 343 344 345 345 345 345 344 344 342 341 338 336 337 338 338 338 339 338 337 336 336 332 330 330 329 330 335 335 336 335 332 333 334 340 350 349 350 348 348 348 348 348 348 346 348
322 321 323 323 325 329 342 343 344 344 344 343 343 343 343 343 343 343 343 344 343 342 343 342 342 342 342 343 342 342 341 341 340 340 339 339 340 340 340 340 340 342 342 343 342 341 341 340 338 336 333 332 332 332 333 333 333 333 333 332 331 330 328 327 325 325 329 329 330 329 330 332 334 336 348 348 350 349 349 348 347 347 347 348 346
321 319 322 322 322 328 339 342 343 343 343 342 342 342 342 341 342 342 342 341 340 341 341 341 341 340 341 340 339 339 339 338 338 337 337 337 337 337 337 337 338 338 339 339 337 336 336 334 333 332 331 330 329 329 330 330 330 330 330 330 329 328 328 327 323 322 322 318 320 324 327 330 332 333 344 348 347 348 348 347 347 347 347 347 347
319 320 320 320 321 329 337 339 339 340 340 340 341 340 340 340 340 340 340 340 339 339 339 338 338 338 339 338 338 338 337 337 336 335 335 334 333 333 334 334 335 335 334 334 334 333 333 333 331 330 330 328 328 329 329 329 329 328 328 327 327 326 326 325 323 321 318 309 312 317 320 325 328 329 340 348 347 348 347 347 346 346 346 347 347
319 319 320 321 321 333 336 338 338 338 338 338 338 338 338 338 337 336 336 336 336 336 335 335 335 336 336 336 336 336 334 334 333 332 332 331 330 330 331 332 332 333 333 332 332 332 330 330 329 329 328 328 328 328 328 326 326 326 326 325 325 325 325 323 321 318 309 308 308 311 314 321 322 325 335 347 347 348 347 346 347 346 347 346 347
318 318 318 319 320 332 335 336 335 336 337 335 336 335 336 336 336 336 336 335 335 335 334 333 333 333 334 333 333 333 332 332 331 330 330 329 329 328 328 329 330 330 330 330 330 330 329 328 328 328 327 327 326 325 325 325 325 324 324 324 323 322 322 320 318 312 307 306 307 311 316 327 320 323 336 345 347 347 346 345 344 343 345 347 346
317 317 317 318 319 333 334 334 334 335 335 334 334 334 335 336 336 336 336 335 335 334 334 333 333 333 333 333 332 332 330 329 329 328 328 327 327 327 327 327 328 328 328 328 328 329 328 327 327 327 327 326 324 323 323 323 323 323 322 321 320 319 320 317 313 306 306 306 308 311 315 325 321 323 342 343 345 346 345 346 345 345 345 346 346
316 316 316 317 324 332 332 333 333 334 334 334 334 335 335 335 335 335 335 335 334 334 333 333 333 332 332 331 330 329 328 328 328 327 327 327 327 327 327 327 326 326 326 327 326 327 326 326 326 325 325 324 323 322 322 322 322 321 320 318 318 317 317 314 307 305 305 306 308 312 310 316 320 331 343 343 345 346 345 345 345 346 346 346 345
315 316 316 316 318 331 333 332 332 333 333 334 334 335 335 335 335 334 334 334 333 333 332 332 331 330 329 329 328 327 327 326 326 326 326 326 325 325 325 325 325 325 325 325 325 325 325 325 325 324 323 322 322 321 321 320 320 319 317 317 316 315 313 312 303 303 305 305 308 308 308 313 318 334 338 342 344 343 343 343 344 344 345 346 346
314 315 315 317 317 326 331 332 331 331 332 333 334 334 334 334 333 333 333 333 332 332 330 329 329 329 328 328 327 327 327 326 326 326 326 326 325 324 324 324 324 324 324 324 324 324 324 324 324 323 321 321 321 320 320 319 318 317 316 315 314 314 310 306 306 301 304 304 307 308 307 313 321 332 335 337 338 338 337 337 337 337 339 340 340
314 313 314 316 316 318 326 330 331 331 331 332 332 332 332 332 332 332 332 331 331 329 328 327 327 327 326 326 326 327 326 326 325 324 324 325 325 324 323 323 323 323 322 322 322 322 322 322 321 320 320 320 320 319 318 318 316 315 314 313 312 312 310 299 301 300 302 306 304 306 306 311 327 330 332 333 334 334 334 334 334 334 334 335 334
313 313 313 314 314 315 318 325 329 330 330 331 330 330 331 330 330 330 330 329 329 328 326 325 324 324 325 325 325 326 326 325 324 323 323 323 323 323 322 321 321 322 321 321 321 320 320 319 319 318 318 318 318 318 317 316 315 313 312 312 311 310 309 304 298 298 300 302 302 306 306 312 326 328 329 331 331 332 332 332 332 332 332 332 332
311 311 313 313 312 313 316 321 322 327 328 329 329 329 329 328 328 328 327 327 327 326 325 324 324 323 323 324 324 324 324 323 322 322 321 321 321 321 321 321 321 320 320 320 320 318 318 317 316 316 316 316 317 316 315 314 313 312 310 310 309 308 307 304 297 297 299 304 302 303 305 313 323 327 328 329 330 330 329 329 329 329 329 330 330
308 309 312 311 311 311 313 313 316 320 317 323 325 327 327 327 326 326 325 326 325 325 324 324 323 322 321 319 319 319 320 321 320 320 320 319 319 319 319 320 320 319 319 319 318 317 316 315 314 314 314 314 314 314 314 312 311 310 308 308 307 307 305 302 296 297 298 304 299 304 305 319 322 325 326 327 328 328 327 327 327 327 328 328 329
306 307 309 309 310 309 311 310 311 311 313 315 313 321 325 325 325 325 325 325 325 324 323 323 322 320 319 317 316 316 317 318 318 317 316 317 317 317 318 318 319 319 318 317 316 315 314 314 313 312 311 311 312 312 311 310 309 308 307 306 305 303 302 299 295 296 297 298 299 298 305 318 321 325 325 325 326 326 326 326 326 326 327 327 327
304 307 308 308 309 308 307 308 308 308 309 310 310 311 321 322 324 323 323 323 323 322 322 321 319 317 316 315 313 310 309 309 313 312 313 314 314 314 316 317 317 317 316 315 314 313 313 312 311 310 308 308 308 308 308 308 307 306 305 304 302 299 294 293 293 295 294 297 300 295 311 316 319 324 325 325 324 324 324 325 325 326 326 326 326
305 305 307 307 307 307 306 306 305 306 307 307 308 308 314 320 320 321 321 321 321 320 319 316 313 312 310 309 306 299 298 298 299 301 308 305 311 312 313 314 314 314 314 314 313 312 311 311 310 308 307 305 303 302 303 305 305 304 304 301 298 292 293 293 293 295 294 295 297 297 311 314 317 321 323 324 324 322 323 324 324 324 325 325 325
303 304 305 306 306 306 306 306 305 304 305 306 307 306 309 316 309 311 310 315 317 316 310 304 306 301 307 301 296 298 296 297 300 305 301 304 307 310 310 311 312 311 311 312 311 310 309 309 308 307 305 303 300 291 292 298 300 302 300 298 291 291 292 292 292 292 294 293 297 302 310 312 316 319 322 322 322 321 322 323 323 323 323 324 325
302 303 304 305 306 306 305 305 304 303 303 303 305 306 305 306 304 305 307 312 309 305 302 302 296 296 295 295 296 296 295 296 297 301 303 307 306 309 307 308 309 309 309 309 309 308 307 306 306 304 302 299 291 289 289 289 289 296 295 291 289 290 291 291 291 291 291 294 292 304 308 311 314 317 319 321 321 321 321 321 322 322 323 323 324
303 304 304 304 304 305 305 304 303 302 303 303 303 304 303 302 303 303 304 303 301 299 298 296 296 294 294 294 293 295 295 298 307 306 304 299 303 307 306 304 303 303 302 301 305 304 305 304 302 300 297 293 289 289 289 289 289 289 289 289 289 289 290 290 289 290 290 293 293 304 306 309 312 314 318 320 320 320 320 320 321 321 322 323 323
302 302 301 302 303 304 304 303 302 301 301 302 302 302 301 300 300 300 300 298 297 296 296 295 295 294 293 294 294 295 296 296 294 294 292 292 291 291 292 292 291 292 296 289 290 292 291 289 289 292 289 290 289 289 289 288 289 289 288 288 289 289 289 289 289 289 289 289 293 302 304 307 310 313 316 318 319 319 319 320 320 321 321 322 322
296 298 300 301 302 303 303 303 301 300 301 301 302 302 301 299 298 298 298 297 296 295 295 295 294 294 293 294 295 294 293 292 291 291 291 290 289 289 289 289 290 290 292 288 288 288 288 288 288 289 288 288 288 288 289 290 288 288 288 288 288 288 288 288 288 288 288 289 291 299 302 304 307 310 313 316 317 318 318 319 319 320 320 321 321
296 298 299 300 301 301 301 301 300 299 299 299 300 300 299 298 297 297 296 295 294 295 294 293 294 293 293 294 293 292 291 290 290 290 290 290 289 288 288 288 288 288 290 287 287 287 287 288 287 287 287 287 287 287 287 287 287 287 287 287 287 287 287 287 287 287 287 288 292 297 300 302 305 309 311 314 316 316 317 318 319 320 319 320 320
295 296 296 298 299 299 300 299 300 298 298 298 298 298 297 296 296 298 297 297 295 294 294 293 294 293 293 294 293 291 291 290 290 290 289 289 289 289 288 287 287 287 289 288 287 287 287 287 287 286 287 286 287 287 287 287 286 286 286 286 287 286 286 286 287 287 287 287 289 293 298 301 303 306 309 312 314 315 316 317 318 318 319 319 320
295 295 296 296 297 299 298 298 299 298 297 296 297 297 296 295 295 296 295 299 295 295 294 293 293 293 293 293 293 291 290 290 290 289 289 289 289 288 287 287 287 287 288 287 287 287 287 286 286 286 285 286 286 287 286 286 285 286 286 286 286 286 286 286 286 286 286 286 286 290 296 299 301 304 306 310 312 313 315 315 316 318 319 319 319
295 295 295 296 296 298 297 297 298 298 297 295 296 295 295 294 293 295 295 298 294 294 293 292 292 293 293 292 292 291 290 290 290 289 289 288 288 288 287 287 286 286 287 287 287 286 286 286 285 286 286 285 285 288 286 285 285 285 286 285 285 285 285 285 285 285 286 286 286 288 293 296 299 303 304 306 309 311 313 314 315 317 318 318 318
295 295 295 295 296 296 297 297 297 299 297 294 294 294 295 293 293 294 294 295 294 294 293 292 291 292 293 292 291 292 290 289 289 289 288 288 287 287 286 286 285 286 287 287 287 287 286 285 286 285 285 285 285 286 285 284 284 285 285 285 285 285 285 285 285 285 285 285 285 286 289 293 297 299 301 304 307 309 311 312 313 314 316 316 316
295 295 295 295 295 296 297 297 297 298 297 295 294 293 294 293 293 294 294 295 294 293 293 292 292 291 292 291 291 291 291 289 289 288 288 288 287 286 286 285 285 285 287 286 287 287 286 286 286 286 285 284 284 285 285 284 283 284 284 284 284 285 284 285 285 285 285 285 285 285 286 289 293 297 298 302 305 307 309 310 311 312 314 314 314
296 296 295 294 294 295 296 296 297 297 297 296 295 293 294 294 293 293 294 295 293 292 292 292 291 291 291 291 290 290 291 289 289 289 290 287 287 286 285 286 286 286 286 286 286 286 286 285 286 286 284 283 284 284 285 284 283 283 284 284 284 284 284 284 285 285 285 285 284 284 285 287 287 292 295 298 301 304 307 308 309 311 311 310 310
297 296 294 294 295 296 297 296 296 297 297 297 296 294 294 294 293 293 294 294 293 292 293 291 291 290 291 291 290 290 290 289 289 288 288 287 287 286 285 285 285 286 286 286 285 285 284 285 285 285 287 284 283 284 283 283 283 283 283 284 283 284 284 284 284 284 284 284 284 284 285 285 286 286 289 295 297 299 304 307 307 308 307 306 307
297 295 294 295 295 295 296 296 297 296 297 297 296 294 294 294 293 293 293 294 293 292 292 291 291 290 290 290 290 290 290 289 288 288 287 287 286 286 285 285 285 286 285 285 284 284 285 285 284 282 282 282 282 285 283 282 282 283 283 284 283 284 284 284 284 283 283 284 284 284 285 285 285 286 290 287 292 295 301 303 304 304 304 304 305
297 297 296 295 294 294 296 295 296 296 296 297 296 295 294 294 293 294 293 293 293 292 291 291 291 290 290 289 289 290 289 289 288 288 287 287 286 286 285 285 285 285 285 284 285 284 284 284 284 282 281 283 283 282 282 282 282 283 283 283 283 285 283 283 283 283 284 284 284 284 284 285 286 288 290 286 287 290 298 299 301 302 302 302 303
298 298 296 295 294 294 295 295 295 295 296 296 296 295 294 293 293 293 293 293 292 292 291 290 289 289 289 289 289 290 289 288 288 287 287 286 286 285 284 285 285 284 284 284 283 285 284 284 283 284 282 281 281 281 282 282 282 282 282 282 282 283 282 283 283 284 286 283 283 283 284 285 287 289 285 285 286 288 293 296 297 299 298 299 302
298 298 297 296 295 294 295 295 295 296 296 296 295 294 294 293 293 292 293 292 292 292 291 290 289 289 289 289 289 290 289 288 288 287 286 286 285 285 284 284 284 284 283 283 283 284 283 283 282 282 282 282 281 281 281 281 282 282 282 281 281 282 282 282 283 287 282 283 283 284 285 284 283 283 284 284 285 287 287 289 294 294 294 297 301
299 298 297 296 295 294 294 295 295 295 295 295 295 293 292 291 290 290 290 291 290 289 289 289 289 289 289 289 289 289 289 288 287 287 286 286 285 284 284 284 284 283 283 283 282 283 283 281 282 281 282 282 281 281 281 282 282 282 281 281 281 281 281 283 284 281 282 282 284 287 284 282 282 282 283 283 284 284 284 284 284 285 286 295 299
298 298 297 295 294 294 294 294 294 294 294 294 293 292 291 291 290 288 288 290 289 289 289 290 289 289 289 289 289 289 288 288 287 286 286 286 284 284 284 284 283 283 283 283 283 282 281 281 281 282 282 282 282 281 280 280 280 279 282 281 280 281 280 284 282 282 283 281 281 283 281 283 282 282 283 283 283 283 283 283 285 283 285 290 295
297 296 296 295 294 294 293 293 294 294 294 293 292 291 290 289 289 290 290 290 290 289 289 289 289 289 288 288 288 288 287 287 287 286 285 286 285 284 284 283 283 283 283 283 283 282 281 282 283 283 281 279 280 280 280 280 279 278 279 280 279 280 284 283 281 281 281 281 281 280 281 282 281 282 282 283 282 283 283 283 283 283 284 284 286
295 296 296 295 295 294 293 294 294 293 294 294 293 292 292 292 291 290 291 291 290 289 288 288 289 289 288 288 288 288 287 287 287 285 285 285 284 284 284 283 283 282 282 282 282 284 283 282 282 280 280 279 279 279 281 277 278 277 277 278 278 279 282 280 281 280 281 281 281 281 281 281 281 281 282 282 282 282 282 283 283 283 284 284 285
297 296 296 295 294 293 293 294 294 293 294 294 293 292 292 292 292 291 291 290 290 290 289 289 288 288 288 288 287 287 287 286 286 286 285 284 284 284 284 283 283 283 282 282 282 282 281 282 281 280 279 280 280 281 279 278 277 277 278 278 275 277 280 278 278 279 281 281 281 280 282 281 281 281 281 281 281 281 282 282 283 283 284 284 283
296 295 295 295 294 294 293 293 293 293 293 293 294 293 293 292 289 289 290 289 288 288 287 286 287 287 287 287 287 287 286 286 286 285 285 284 284 284 284 283 283 283 282 282 282 281 281 281 280 281 280 278 277 279 281 279 277 277 277 277 275 276 275 276 275 279 279 279 280 279 280 281 281 280 281 281 281 281 281 282 282 283 283 283 283
295 295 295 295 295 294 293 293 293 293 293 294 293 292 291 288 287 287 287 286 286 286 285 284 286 287 287 286 286 286 286 286 285 285 285 284 283 284 283 283 283 283 282 282 282 281 281 281 281 281 278 278 278 277 279 279 279 279 277 276 276 276 275 275 276 276 277 278 278 279 282 281 279 280 280 280 280 280 281 281 281 282 282 282 282
295 296 296 295 295 294 293 293 293 293 293 293 293 292 291 290 288 287 286 286 285 285 286 286 285 286 287 287 286 286 286 286 285 285 285 284 283 283 283 283 282 282 282 282 281 280 280 280 281 281 278 278 279 277 277 280 280 280 278 276 277 279 276 275 276 275 277 279 278 279 279 279 278 279 279 279 280 280 282 281 281 281 281 281 282
296 296 295 294 294 293 293 293 293 292 293 292 292 292 290 290 289 289 289 288 288 287 289 289 288 287 287 286 286 285 286 285 285 284 284 284 283 282 282 283 282 282 282 281 281 281 281 281 281 280 279 280 279 277 278 278 277 278 279 278 280 278 276 276 274 275 274 276 276 276 277 278 278 278 279 279 279 279 279 280 280 280 280 280 281
294 294 294 293 293 292 292 292 292 292 292 292 292 292 291 290 289 289 289 289 289 289 288 288 287 287 286 286 286 285 285 285 285 284 284 284 283 282 282 282 282 282 282 281 281 280 280 281 281 280 280 280 279 279 277 277 277 278 279 277 279 278 277 277 276 276 275 273 275 276 277 276 277 278 279 278 278 278 278 279 279 279 280 280 281
294 294 294 293 293 292 292 291 292 292 292 291 292 291 291 290 290 290 289 290 290 289 287 287 286 286 285 285 285 285 285 285 285 284 284 284 284 282 282 281 281 281 282 281 280 280 280 280 280 279 280 279 278 278 278 277 277 277 278 276 276 276 276 276 276 276 275 273 274 274 275 276 278 278 278 278 279 279 279 279 279 281 281 282 281
294 294 292 292 292 291 291 291 291 291 291 291 291 291 291 291 290 289 289 289 289 286 286 286 285 285 285 285 285 285 284 284 284 284 283 283 283 282 282 281 281 281 282 280 280 280 280 280 280 280 280 279 279 278 278 278 277 278 277 277 276 275 275 275 274 275 275 274 274 274 275 274 274 276 277 277 278 278 278 278 279 279 279 279 279
291 291 291 291 291 291 290 290 291 291 291 291 291 290 290 290 290 290 289 289 288 286 285 285 285 284 285 284 284 285 284 284 284 283 283 283 283 283 282 281 281 282 282 280 280 280 280 280 280 279 279 279 279 278 280 278 277 277 277 277 277 277 275 274 274 274 274 273 273 273 274 275 274 274 276 277 278 278 278 278 278 278 278 278 279
Wind_Speed
7 7 5 6 10 12 13 13 13 13 13 12 12 12 12 11 11 11 11 10 10 9 10 10 9 10 10 10 10 11 10 10 10 11 11 10 9 9 9 9 9 9 9 9 9 10 10 11 11 10 11 11 13 13 13 13 14 14 14 14 13 12 11 12 12 12 12 12 13 13 13 12 11 8 8 9 9 10 11 13 12 8 5 6 10
12 7 5 4 12 13 13 14 14 14 14 13 13 13 12 12 11 11 11 11 10 10 10 11 10 11 11 11 11 11 11 11 11 10 11 11 10 10 11 11 11 11 10 10 9 10 10 11 13 12 12 13 13 13 13 13 14 14 13 12 11 11 10 11 12 12 12 12 12 12 12 12 12 9 7 7 9 10 11 11 11 7 3 10 11
7 6 4 4 12 13 13 13 14 14 13 13 13 12 12 11 11 12 12 11 11 10 11 11 10 11 11 11 11 11 10 10 9 9 10 9 9 10 11 12 11 11 11 10 10 11 11 12 14 14 15 13 12 13 13 13 13 12 12 11 11 11 11 11 11 12 12 11 11 11 10 10 11 12 5 8 9 10 10 10 9 8 6 11 10
8 5 4 5 10 12 14 13 13 14 13 13 13 13 12 12 11 11 11 11 11 11 10 11 10 11 10 9 9 9 10 9 8 8 8 8 8 9 9 10 11 11 10 11 11 10 10 11 13 13 13 13 12 11 12 13 12 12 12 12 12 12 12 12 12 12 12 11 11 9 6 6 7 12 12 7 9 9 9 9 9 10 11 10 10
6 4 4 4 5 6 11 12 13 13 12 11 12 13 12 10 10 11 11 11 11 10 9 8 8 7 7 7 7 7 7 7 7 8 8 8 8 8 9 9 9 9 9 9 11 13 13 13 13 12 13 12 13 13 13 13 13 13 12 13 13 13 14 14 13 13 12 11 11 7 5 6 6 9 11 8 8 8 9 9 9 10 10 11 11
5 4 4 4 4 4 11 11 12 11 12 12 11 10 11 11 11 10 10 10 9 8 8 8 7 7 7 7 7 7 7 7 7 8 7 9 10 10 8 8 8 9 11 12 12 12 12 12 13 12 11 12 12 13 13 13 13 13 13 13 13 14 14 14 15 14 13 10 10 6 6 5 6 5 12 7 6 7 7 8 9 9 10 11 11
6 4 4 4 3 3 9 13 15 14 14 13 12 12 12 12 11 10 10 10 10 10 9 8 7 6 7 6 6 6 6 6 7 7 8 11 11 12 11 9 9 10 11 12 12 12 12 13 12 11 12 12 12 12 12 13 13 13 13 13 14 14 14 14 15 15 13 8 6 6 6 6 6 5 10 9 6 5 7 8 8 9 9 10 10
4 4 4 4 3 4 7 11 13 12 12 13 13 12 11 12 12 12 11 10 10 10 9 9 8 7 7 7 7 7 7 8 8 7 10 11 12 12 12 11 11 11 11 12 12 12 12 12 12 11 12 12 12 12 12 12 13 13 13 13 14 14 15 15 15 14 13 6 6 5 5 6 6 5 10 10 7 5 6 7 7 8 8 9 7
6 5 5 4 4 6 9 11 14 15 14 13 13 13 12 12 12 12 12 12 11 11 10 10 10 9 8 8 8 8 8 8 8 10 11 12 12 12 12 12 12 11 12 12 12 12 12 12 11 12 11 11 11 12 12 13 13 13 13 13 14 14 15 15 14 13 8 6 5 5 5 5 5 5 9 12 8 6 7 6 6 8 7 6 5
6 5 4 4 5 8 10 13 16 14 14 15 14 14 14 14 14 14 13 13 12 12 12 11 11 11 11 10 10 10 10 10 11 11 12 12 12 12 12 12 12 12 12 12 12 12 12 12 12 12 12 12 12 13 13 13 13 13 13 14 14 15 14 14 14 10 6 6 6 5 6 9 4 4 7 9 9 7 6 3 4 5 5 5 6
6 5 4 5 5 9 13 16 14 16 15 15 15 15 16 16 15 14 14 14 13 13 13 13 12 13 13 13 12 12 11 11 12 12 12 12 12 12 12 12 12 12 12 12 12 12 12 12 12 12 13 13 13 12 13 13 13 13 14 15 15 15 15 14 11 6 6 7 7 7 7 11 6 5 7 8 9 7 4 5 8 8 10 10 10
7 5 4 4 6 10 14 15 16 16 15 16 16 16 16 15 14 14 14 14 14 14 14 14 14 13 13 13 13 12 12 12 12 12 12 12 12 12 12 12 12 12 12 12 12 12 12 12 12 13 13 12 12 12 12 13 13 14 14 15 15 15 14 14 8 6 6 7 7 7 7 7 7 8 14 11 11 12 10 10 11 11 11 12 11
7 6 5 4 4 9 12 15 15 15 16 16 16 16 15 14 14 14 14 14 14 14 14 14 13 13 13 13 13 13 13 13 13 13 12 12 12 12 12 12 12 12 12 12 12 12 12 12 12 13 13 12 12 13 13 13 14 15 15 15 15 15 13 14 6 7 6 7 6 8 7 6 7 12 13 14 14 14 15 16 15 14 14 14 14
7 6 5 5 4 7 10 12 14 15 16 16 15 14 14 14 14 14 14 14 14 14 13 13 13 13 13 13 13 13 13 13 13 13 13 13 13 12 12 12 12 12 12 12 12 12 12 12 13 13 13 13 13 13 14 14 14 15 15 15 15 15 14 9 8 6 6 7 6 7 7 7 7 13 13 14 14 14 14 14 15 16 15 16 16
9 6 5 5 4 4 7 10 11 13 14 15 14 14 14 14 14 14 14 14 13 13 12 12 12 12 12 12 12 12 12 13 13 13 13 13 13 13 12 12 12 12 12 12 12 12 12 13 13 13 13 13 13 13 14 14 15 15 16 16 16 16 15 6 6 6 6 6 6 7 7 6 13 14 14 14 14 14 15 15 15 15 15 16 16
7 7 5 5 5 4 4 8 10 10 11 13 14 14 13 13 13 13 13 13 13 13 12 12 12 12 12 12 12 12 12 12 12 13 13 13 13 13 12 12 12 12 12 12 12 12 13 13 13 13 13 13 13 14 14 14 15 15 16 16 16 16 15 9 6 6 6 6 6 6 7 6 15 14 14 14 14 14 14 15 15 15 15 14 14
5 5 6 5 5 4 4 5 6 10 10 10 11 12 13 13 13 13 12 13 13 13 13 12 12 12 13 12 12 12 12 12 12 12 12 12 13 12 12 12 12 12 12 12 12 13 13 13 13 13 13 13 13 13 14 14 14 14 15 15 15 15 14 10 6 6 6 6 6 6 6 6 12 14 14 14 14 14 14 14 15 15 14 13 14
4 4 6 5 4 4 4 4 4 5 5 8 10 10 11 13 13 13 13 13 13 13 13 13 13 13 13 12 12 12 12 12 12 12 12 12 12 12 12 12 12 12 12 13 13 13 13 13 13 13 13 13 13 13 13 14 14 14 14 14 14 13 12 10 6 6 6 6 7 6 6 10 14 13 13 14 14 14 14 14 14 14 14 14 14
3 4 4 5 5 4 4 4 4 4 5 5 4 6 10 11 12 13 13 14 14 14 14 13 13 13 13 13 12 12 12 13 12 12 12 11 11 10 12 12 12 13 13 13 13 13 13 13 13 13 13 13 13 13 13 13 13 13 14 13 12 12 11 7 5 6 6 6 6 7 6 14 13 12 12 12 13 13 14 14 14 14 14 14 14
4 4 5 5 5 5 4 4 4 4 4 5 5 5 8 10 11 12 13 13 13 13 13 13 11 11 11 10 9 8 8 7 10 8 11 11 10 7 11 12 12 13 13 13 13 13 13 13 13 13 13 13 13 13 13 13 13 13 13 12 11 9 6 5 5 5 6 6 6 6 10 14 14 12 12 12 12 12 13 13 13 13 13 14 14
4 6 6 6 5 6 5 5 4 4 4 4 4 4 5 9 9 10 11 11 11 12 13 11 10 9 9 9 9 6 5 6 7 6 8 5 9 10 12 12 12 12 12 12 12 12 12 13 13 13 13 13 12 11 12 12 12 12 12 11 9 6 5 5 5 5 5 5 6 6 14 14 13 13 12 12 12 12 12 13 13 13 13 13 13
8 7 7 7 7 7 7 6 5 5 5 5 4 4 4 6 5 5 5 7 9 9 8 6 7 5 8 7 5 5 6 5 5 6 5 5 7 11 11 12 12 12 12 12 12 12 13 13 13 13 13 12 11 6 5 8 11 11 10 9 5 5 5 5 5 5 5 5 6 8 15 14 13 13 12 11 11 12 12 12 13 12 12 12 12
9 9 9 10 8 7 6 8 7 6 6 5 4 4 4 4 4 4 5 6 6 6 6 6 5 6 5 5 5 5 5 5 5 5 5 9 7 11 12 12 12 12 12 12 11 11 12 12 13 12 12 11 6 5 5 5 5 8 7 5 5 5 5 5 5 5 6 5 5 12 14 14 14 13 12 12 11 11 11 11 12 12 12 12 12
13 12 11 7 8 9 10 8 8 7 7 6 5 5 4 4 5 5 6 5 5 5 5 5 5 5 6 6 6 5 5 6 7 9 7 5 7 9 12 11 11 10 10 7 9 10 11 11 11 10 7 4 4 4 4 4 4 4 5 5 5 5 6 5 5 5 5 5 6 15 15 15 14 14 13 12 11 11 11 11 11 11 11 12 12
10 6 5 11 12 11 9 9 8 7 7 7 6 6 5 6 6 5 5 6 6 6 6 5 5 5 5 6 5 5 5 6 5 5 6 6 5 5 5 5 5 5 6 5 5 5 5 5 4 5 4 4 4 5 4 5 4 4 4 5 5 5 5 5 5 5 5 5 6 15 15 15 15 14 13 12 12 11 11 11 10 10 10 11 11
4 8 13 11 12 11 10 8 8 8 8 8 8 6 6 6 6 6 6 6 6 6 6 6 6 5 5 5 5 6 6 6 5 5 5 6 6 5 5 4 4 4 3 5 5 3 3 3 3 4 3 3 4 3 3 4 4 4 5 5 5 5 5 5 5 6 5 6 7 15 15 15 15 15 14 13 12 12 11 11 11 10 10 10 10
10 13 9 8 9 9 10 9 10 9 9 7 6 6 7 6 6 6 7 6 6 7 7 6 6 5 5 5 7 6 6 6 6 5 5 5 6 5 5 4 4 4 3 5 4 2 2 3 3 3 3 3 3 3 3 3 3 4 4 4 5 5 5 5 5 5 5 6 7 15 15 15 15 14 14 13 13 12 12 11 11 10 10 10 10
5 9 9 9 10 14 11 10 10 10 9 8 8 8 7 7 7 6 7 7 7 7 7 6 6 6 5 5 4 6 7 7 6 6 6 5 5 4 5 5 4 4 3 4 5 3 3 2 3 3 3 3 4 3 3 3 3 3 3 3 4 4 5 5 5 5 5 5 6 10 15 15 15 14 14 14 13 13 12 11 11 11 10 10 10
12 12 10 11 13 12 12 13 12 12 9 9 9 8 7 7 7 8 8 7 8 8 7 6 7 6 5 5 5 7 5 6 6 6 6 6 6 5 6 5 4 4 4 4 4 5 4 4 3 3 3 3 4 4 3 3 3 4 4 4 4 5 4 5 4 4 4 5 5 7 13 14 14 14 14 14 14 13 12 11 11 11 11 11 11
17 13 12 13 10 11 14 16 15 13 11 10 9 9 9 9 9 9 8 8 8 7 6 7 6 7 7 6 6 6 6 7 7 6 7 7 6 5 5 5 6 5 5 6 5 5 6 4 4 3 4 3 4 3 3 4 4 4 4 5 5 5 4 4 5 5 4 5 5 5 10 12 13 13 14 14 14 13 12 12 12 12 12 12 12
11 13 13 12 10 11 14 14 13 11 10 11 10 10 9 10 10 8 8 8 8 7 7 6 6 6 7 6 6 6 6 5 6 7 6 7 6 6 6 5 6 6 5 6 4 5 5 5 5 4 4 4 5 2 3 3 3 4 3 4 4 4 5 5 4 4 5 5 5 4 6 10 11 12 12 13 13 13 13 12 12 12 12 13 13
13 17 14 10 10 15 15 14 14 12 12 12 10 10 11 10 9 8 9 8 7 7 7 7 7 7 6 6 6 6 6 6 6 6 7 7 7 7 6 6 6 6 5 5 5 4 5 4 4 3 3 4 4 3 2 4 4 4 4 4 4 4 5 5 5 5 4 5 5 5 5 6 10 12 12 13 14 14 14 13 13 13 13 13 14
14 14 11 11 15 14 14 15 14 13 14 14 13 11 9 9 9 9 8 8 8 7 8 8 7 7 6 7 7 7 6 7 7 7 6 6 7 7 6 6 6 6 5 5 5 4 4 4 4 3 3 3 3 4 3 4 5 5 4 4 4 4 3 4 4 4 5 4 5 4 4 4 4 9 11 12 13 15 15 14 14 13 13 14 14
12 9 10 14 14 9 10 10 13 15 16 13 11 10 10 9 8 8 8 8 8 8 8 7 7 7 7 7 7 7 7 6 7 6 6 6 7 7 7 6 6 5 5 5 6 5 5 5 3 4 3 4 5 4 4 5 4 3 4 3 3 4 4 4 4 4 3 4 4 3 4 3 3 4 4 9 12 13 15 14 13 13 13 14 14
9 10 16 20 14 13 11 11 14 16 15 14 14 12 10 10 9 9 8 9 8 8 7 7 7 7 7 7 8 7 8 8 7 8 7 7 7 7 6 6 6 5 6 5 6 5 5 5 3 6 3 4 4 3 4 4 4 5 5 4 4 4 3 4 3 3 4 4 3 3 3 3 3 3 3 4 6 10 12 13 13 13 14 14 14
17 17 16 11 14 14 14 14 14 16 16 16 14 13 12 11 9 9 8 8 8 8 8 8 8 7 7 7 8 8 8 8 8 7 8 7 7 7 7 6 6 6 6 5 5 6 5 4 2 4 5 3 3 3 3 3 3 3 3 4 3 3 5 4 4 4 4 4 3 4 3 3 3 4 4 4 5 4 10 11 12 12 13 14 14
18 16 15 14 14 15 15 16 18 19 18 16 14 12 11 11 10 10 10 9 9 9 7 7 7 7 7 8 8 8 8 9 9 8 8 8 7 6 6 6 6 6 6 5 5 5 6 5 3 2 3 5 3 2 2 2 3 3 3 3 3 3 3 3 3 3 3 3 4 3 4 4 4 5 4 5 4 4 6 10 11 12 12 13 14
14 16 15 16 18 17 17 17 16 16 14 15 14 12 11 10 8 8 8 9 9 8 7 7 8 8 7 8 9 9 9 9 9 8 7 7 6 6 6 6 6 6 6 6 6 4 4 5 5 2 3 4 3 3 3 2 1 3 3 3 3 3 3 3 2 2 2 4 4 4 4 4 4 3 4 3 3 4 4 7 10 10 11 12 14
12 15 15 14 11 11 12 14 14 14 14 13 11 9 8 6 5 6 7 7 7 7 7 7 8 7 9 9 9 9 9 9 9 8 8 8 7 7 7 6 6 7 7 6 6 5 4 3 5 4 3 4 4 2 1 2 1 1 2 3 3 3 2 1 1 1 3 4 3 4 3 5 3 3 4 4 4 4 5 5 5 5 6 11 13
11 11 12 12 12 11 10 11 12 13 11 10 9 9 8 9 10 6 6 8 8 8 8 9 8 9 9 9 10 9 8 9 9 8 8 8 8 8 8 7 6 7 8 8 7 6 7 6 5 6 5 3 3 2 2 2 1 3 3 4 3 3 3 1 1 1 4 3 3 3 4 4 4 4 5 5 6 5 6 6 5 6 5 7 11
10 11 12 14 15 16 15 17 15 15 14 14 13 13 13 9 7 12 13 11 11 10 9 9 10 10 10 10 10 9 9 9 9 9 9 8 7 7 7 6 6 7 8 8 7 7 5 5 6 3 4 3 3 3 3 2 4 3 3 5 6 3 2 1 3 2 4 2 3 4 3 3 4 5 5 5 5 6 5 6 6 6 6 6 6
12 13 17 18 18 16 17 16 12 14 15 16 15 15 15 16 17 16 13 12 12 12 12 11 11 9 9 10 9 8 9 9 9 9 8 9 9 8 8 9 8 7 5 5 5 5 5 5 6 5 2 3 2 3 4 1 6 2 3 6 6 4 3 3 2 1 2 2 1 2 3 2 3 3 4 5 4 4 4 5 6 6 6 6 5
16 18 18 16 14 14 14 13 14 15 15 15 13 15 12 11 12 10 13 10 8 8 7 7 6 8 9 9 9 9 9 9 9 9 9 9 9 9 9 8 7 7 7 7 6 6 6 7 5 7 5 3 2 2 4 2 3 2 2 1 3 5 3 3 3 3 1 0 0 1 2 1 2 2 2 3 3 3 3 4 5 5 6 6 6
10 10 10 15 13 14 14 15 15 15 14 14 15 12 11 8 6 4 5 6 6 6 5 5 6 6 10 9 9 10 10 10 10 10 8 8 9 10 8 8 8 7 8 9 8 8 7 6 5 5 8 5 1 0 2 3 3 4 2 2 0 1 2 1 5 7 1 1 1 1 0 1 1 3 2 3 4 3 3 3 4 5 5 6 6
13 14 14 15 13 18 17 17 15 16 14 15 15 12 10 8 6 6 6 6 5 6 5 6 9 10 8 9 12 10 10 10 10 10 9 10 9 8 8 8 8 7 7 8 9 9 8 7 7 7 6 8 5 2 0 1 0 1 5 2 1 2 3 1 4 7 2 2 1 2 1 2 3 2 2 4 3 3 3 4 4 4 5 5 6
13 15 14 16 14 13 14 13 11 12 13 14 15 13 13 14 13 11 11 10 9 9 14 16 14 14 16 8 6 10 11 10 10 10 10 8 9 9 8 8 8 8 7 7 7 6 7 8 8 7 6 3 7 6 2 0 1 2 2 2 1 2 1 1 1 4 4 2 2 2 1 4 2 1 2 4 4 4 3 4 4 5 4 4 4
15 9 9 11 12 12 13 15 14 13 13 14 15 13 13 12 16 17 16 16 16 13 13 11 11 10 8 11 11 9 11 11 10 10 9 9 8 8 8 8 7 7 6 7 8 9 8 8 6 6 6 7 7 5 7 5 1 1 1 2 4 3 4 4 3 1 6 5 2 2 3 4 2 1 3 4 4 3 3 3 4 5 5 4 3
8 7 10 11 14 14 14 14 12 12 13 13 16 15 15 15 15 14 13 14 15 15 13 11 8 8 10 11 10 11 11 11 11 10 10 9 9 8 8 8 8 7 8 8 9 7 6 5 6 6 6 6 7 9 7 7 7 3 2 3 4 4 3 3 2 3 1 5 7 2 3 3 4 4 4 5 3 4 5 3 4 6 5 4 3
9 13 13 12 11 11 12 12 13 13 13 15 16 16 15 16 16 15 14 13 13 10 7 7 9 10 11 9 10 10 10 10 10 11 11 10 9 9 9 8 8 8 8 7 6 8 10 10 9 8 8 7 5 5 8 8 6 7 6 2 4 3 3 2 2 2 3 1 9 3 3 3 6 8 5 2 5 4 4 5 5 5 6 5 3
9 7 7 9 10 10 13 14 15 13 13 15 16 17 16 14 15 15 17 14 11 7 8 10 10 10 12 12 11 10 10 10 10 10 10 10 10 9 10 10 10 9 8 8 8 8 8 8 9 8 8 8 5 7 8 7 6 6 6 7 5 4 2 1 1 2 1 2 7 10 8 8 11 5 3 5 3 5 4 4 5 5 5 5 4
5 7 8 9 10 11 13 15 15 12 13 16 17 18 16 15 16 17 18 17 14 11 10 10 10 9 13 12 12 11 9 11 9 9 11 11 10 10 10 10 8 8 9 9 10 10 9 9 7 7 8 9 7 7 5 6 6 7 6 8 8 9 8 6 7 5 4 2 2 9 10 4 6 14 2 1 7 7 4 4 5 6 5 4 4
Wind_Direction
217 189 202 208 177 166 157 158 153 149 150 152 146 147 148 149 146 143 140 147 142 142 139 137 139 137 133 134 129 122 120 114 110 107 97 87 81 81 80 73 74 69 70 69 71 76 76 75 66 61 61 59 57 57 51 54 54 53 50 49 47 44 34 19 16 14 10 11 12 15 12 11 22 57 72 62 61 58 45 37 31 25 17 9 21
172 192 179 201 171 159 160 157 153 151 149 150 149 146 146 144 140 139 139 139 140 140 137 136 139 136 135 131 127 126 121 113 106 96 89 83 79 82 80 76 71 70 71 76 75 76 75 73 68 63 56 52 50 52 54 49 51 48 48 46 43 41 34 23 14 15 13 13 13 13 10 8 9 32 62 69 62 62 55 45 40 36 20 22 24
140 164 179 198 167 160 158 155 152 149 150 148 147 142 141 139 140 139 138 137 137 134 132 130 135 131 132 129 126 120 111 110 103 93 84 85 82 77 76 76 77 76 71 70 77 78 74 73 63 52 46 46 46 43 45 48 49 49 43 39 35 32 29 25 18 15 15 14 12 10 10 4 357 353 8 69 68 64 57 48 41 32 18 24 24
141 167 169 190 171 164 160 154 152 152 151 148 144 141 141 139 136 135 135 136 135 133 132 132 131 121 121 120 117 110 103 98 103 105 101 95 93 88 77 74 76 76 80 74 76 79 78 66 61 50 41 37 38 42 38 37 40 38 33 31 29 27 23 20 18 16 16 16 14 12 8 0 355 349 4 68 66 66 57 48 39 35 29 24 24
148 163 165 171 159 173 159 153 159 157 155 150 152 150 145 149 149 145 145 140 135 133 131 134 134 127 123 123 114 110 103 104 99 97 96 94 91 90 88 78 72 66 61 73 64 60 62 61 57 48 39 34 30 32 32 33 31 31 28 25 24 21 19 15 13 14 15 16 11 13 5 359 349 347 360 62 66 70 63 47 39 33 28 23 22
155 163 160 153 152 187 161 160 164 165 161 164 166 161 164 159 162 159 158 150 147 142 135 146 139 137 142 133 131 129 122 113 99 92 96 92 84 83 84 86 86 72 66 59 55 53 55 58 58 55 46 39 37 33 31 31 31 30 26 23 21 19 16 13 11 9 11 19 11 5 359 359 350 346 351 41 69 72 65 53 41 33 30 27 22
153 161 154 155 154 194 181 175 176 173 174 172 172 169 172 166 160 165 168 165 164 162 145 142 143 150 147 145 146 136 128 119 113 108 96 82 78 76 75 80 82 77 72 70 69 66 63 62 62 58 50 43 40 37 35 34 30 28 26 22 18 16 14 12 10 8 9 17 11 3 355 352 350 346 343 6 41 68 65 52 41 35 31 30 22
149 158 164 157 158 194 163 173 177 174 182 177 169 170 175 169 167 173 164 160 163 161 157 153 156 157 144 148 139 127 123 118 117 110 89 83 80 74 72 76 81 79 78 77 74 69 67 65 64 60 54 48 43 42 40 38 32 29 26 21 19 16 13 11 12 9 13 16 10 4 351 345 350 348 335 3 26 42 55 49 42 36 30 30 19
162 170 161 160 169 180 173 176 177 183 177 181 173 169 170 169 167 170 167 166 166 165 163 157 161 157 150 147 143 132 131 127 120 97 86 83 81 78 75 70 72 76 75 75 74 74 72 70 67 63 60 55 51 48 45 41 37 33 30 27 23 20 18 18 17 15 14 11 8 0 348 351 349 344 332 352 21 49 47 46 29 29 22 19 18
167 169 166 161 171 186 183 177 182 182 177 176 174 174 171 169 166 162 158 157 157 155 154 153 157 157 151 148 144 140 135 123 103 94 91 89 86 83 80 76 74 73 75 74 74 74 74 74 70 68 66 63 59 54 49 46 41 39 36 34 32 30 29 26 21 16 14 5 5 10 356 5 353 340 326 3 27 50 46 36 26 7 338 15 23
166 171 171 165 177 185 177 179 181 179 178 177 176 173 171 168 163 159 157 157 155 152 151 152 153 151 147 142 136 130 121 110 105 100 97 95 93 89 85 83 80 78 77 77 77 75 75 74 73 72 70 66 63 59 55 51 48 44 42 39 37 34 33 30 25 15 11 9 6 10 358 1 354 325 336 11 17 48 50 28 26 15 15 15 14
170 172 174 171 179 182 179 178 179 178 178 177 176 174 172 165 161 159 156 154 153 151 151 152 149 143 137 132 128 124 120 116 111 108 104 100 98 95 93 90 88 85 82 80 80 80 78 76 77 76 73 71 68 64 60 57 53 49 46 42 39 37 33 34 31 17 14 11 12 7 0 360 350 348 23 24 27 37 38 35 32 22 23 25 19
170 172 175 172 178 180 182 179 180 179 178 178 177 174 169 163 160 158 156 155 155 152 150 147 146 144 140 136 133 129 127 123 120 116 112 107 104 102 98 95 92 90 86 83 81 80 78 77 77 76 75 72 69 66 62 58 54 51 46 43 41 38 35 35 30 24 19 15 12 8 3 355 342 4 20 28 37 41 39 39 39 35 35 35 34
163 172 174 172 171 184 190 182 181 181 181 180 178 173 167 163 162 159 158 156 154 152 150 149 147 143 140 137 134 131 128 125 122 119 116 113 109 105 101 97 96 92 88 86 83 81 79 77 76 74 72 69 67 63 61 58 54 51 48 45 42 39 36 30 29 24 21 16 9 7 3 353 342 16 21 21 25 29 30 29 30 25 23 24 24
163 170 172 170 174 184 203 179 180 184 183 181 177 173 169 165 162 161 158 156 154 153 151 148 145 142 139 136 132 129 125 122 120 119 117 114 111 108 105 101 97 93 90 87 86 83 80 78 75 73 70 69 66 63 60 57 54 50 47 43 40 38 38 31 27 22 19 15 7 4 359 347 1 20 21 22 23 24 26 23 24 22 18 17 15
162 165 164 171 175 177 189 179 181 182 186 182 177 174 169 165 162 160 158 157 155 154 151 148 145 141 138 133 129 126 122 119 117 116 114 113 113 109 106 103 100 97 93 90 88 83 80 76 75 72 70 69 68 65 62 60 57 52 47 43 39 36 34 35 26 23 15 12 5 4 352 343 3 17 20 23 25 25 24 22 21 21 19 15 11
160 161 163 174 175 176 176 177 182 185 187 179 173 173 169 166 164 162 160 159 157 154 151 148 144 141 138 134 130 125 122 118 114 113 111 113 113 110 106 103 102 99 95 91 87 83 79 76 73 71 69 67 66 66 65 62 59 54 51 46 42 37 34 31 28 20 10 12 8 355 347 336 4 16 17 20 23 27 27 24 21 19 17 15 15
167 166 175 173 179 179 178 183 189 186 182 172 173 172 169 168 167 164 162 161 159 155 151 148 145 140 133 129 127 127 124 120 116 112 110 109 109 110 107 104 102 99 95 91 86 81 79 75 72 70 68 65 64 65 64 62 60 58 54 48 44 39 35 33 30 17 12 9 6 350 337 358 8 17 17 18 20 22 24 23 22 21 19 17 17
178 189 181 174 187 180 184 186 184 172 170 165 167 171 168 168 167 164 163 162 160 156 151 149 143 136 130 126 123 118 119 118 112 104 97 95 96 96 102 102 100 97 94 90 86 82 78 76 73 69 66 63 61 60 61 60 59 58 54 51 45 39 35 32 27 21 15 5 4 355 329 4 6 15 19 20 19 18 20 20 21 20 19 19 19
200 199 193 199 181 181 184 179 173 173 168 164 168 169 170 168 168 166 165 164 160 156 153 146 136 130 126 118 105 96 90 88 93 90 93 91 87 86 94 95 95 93 91 90 87 84 81 78 76 72 67 62 57 52 52 53 52 50 50 48 47 43 38 30 26 22 17 6 6 344 349 5 7 8 15 19 19 18 17 17 18 18 18 18 18
218 215 201 197 192 185 186 178 185 176 172 165 167 170 176 167 167 167 168 164 158 155 146 129 123 125 121 116 113 108 107 102 99 103 93 92 92 91 93 93 92 91 90 89 87 84 81 78 77 75 72 66 55 47 41 46 47 45 44 46 44 43 36 32 26 19 20 2 4 331 2 3 6 6 11 13 16 16 14 14 15 15 18 18 18
201 210 218 201 191 197 187 183 183 187 173 169 167 172 179 159 162 166 162 160 156 145 126 126 127 130 129 122 127 127 123 119 117 111 105 100 101 101 99 97 94 90 87 82 79 75 73 72 71 68 65 59 52 45 32 29 32 36 36 41 42 41 34 31 25 17 15 358 2 341 5 3 5 4 7 8 14 14 11 13 13 13 14 15 16
208 209 210 202 196 187 188 189 189 183 175 173 170 179 174 152 165 159 159 152 148 130 136 134 136 139 138 140 135 131 131 124 124 127 122 115 108 107 101 96 91 87 87 85 81 77 74 71 68 65 58 51 42 39 34 25 21 21 22 24 35 32 33 33 27 20 11 355 356 350 3 3 3 3 5 6 11 10 12 14 12 13 12 12 14
210 202 198 191 193 195 194 190 187 182 177 177 173 180 171 161 166 168 158 150 139 142 144 145 146 148 150 147 142 140 134 132 122 112 102 97 91 88 91 90 89 84 77 66 72 76 72 67 68 59 48 45 46 38 37 29 28 20 19 21 25 24 27 27 24 15 8 359 347 354 1 1 2 3 3 5 9 10 12 13 14 16 15 13 16
202 170 176 200 200 197 187 193 186 183 180 177 174 181 174 167 175 175 161 155 150 149 155 155 158 157 156 150 149 138 130 121 119 112 108 105 95 89 81 79 79 78 82 82 72 67 65 61 52 55 49 52 48 34 33 31 25 23 26 22 24 23 22 22 18 14 6 359 349 357 359 359 1 2 3 5 10 9 12 12 14 16 18 19 21
166 187 205 199 200 197 191 188 185 190 188 178 180 176 163 180 183 181 166 165 160 162 163 166 167 168 163 155 140 129 127 122 119 118 112 110 105 102 95 92 81 84 74 90 80 76 71 75 83 79 68 67 63 50 37 38 25 20 21 21 22 21 21 17 16 11 4 357 349 356 358 358 0 2 3 5 10 10 12 11 15 16 17 22 24
199 211 199 203 196 198 194 184 192 189 193 181 173 173 182 186 182 179 168 177 168 166 175 173 175 170 168 161 145 144 137 135 134 131 127 120 116 116 111 103 107 105 95 104 98 93 106 104 100 97 89 76 65 58 51 42 37 30 23 23 19 19 18 14 12 10 1 356 347 352 355 357 359 1 4 5 9 11 12 13 14 16 17 21 24
211 216 201 197 194 199 193 188 194 189 190 183 179 182 184 182 187 182 183 175 167 178 179 179 169 174 173 168 149 149 150 150 150 144 145 131 135 130 123 117 124 136 135 129 129 131 131 128 117 93 85 74 72 57 55 49 37 39 35 25 19 22 20 16 11 7 0 355 349 346 353 354 357 1 4 6 10 11 13 13 13 16 18 21 23
216 210 203 199 202 193 189 196 194 193 189 181 188 185 183 186 187 187 186 178 179 181 178 168 173 175 175 169 157 151 154 155 156 155 145 145 140 140 142 145 142 153 145 156 150 148 142 144 123 110 96 80 64 50 42 38 33 29 28 16 13 12 15 14 11 3 1 355 348 342 351 352 355 359 4 5 9 12 13 14 15 15 18 19 20
215 204 200 208 195 186 193 198 195 191 186 180 191 185 187 189 193 191 184 179 185 177 169 177 176 170 178 175 170 157 168 166 160 157 156 155 152 149 149 157 159 165 159 157 172 153 147 139 123 110 101 92 75 55 56 42 28 23 22 15 9 4 6 7 0 359 352 352 349 343 346 351 354 358 0 2 7 11 13 16 17 14 18 18 17
202 210 207 204 193 186 199 197 194 189 182 190 189 193 185 194 192 186 180 185 176 169 177 176 174 182 178 173 169 163 161 162 164 165 160 156 156 156 162 161 163 178 171 161 167 154 146 135 134 124 112 100 85 73 76 62 36 26 14 17 1 358 5 2 357 355 355 350 348 345 341 346 351 354 356 358 6 8 12 16 16 14 17 16 15
201 213 206 191 188 199 197 194 192 186 185 192 190 192 193 193 189 183 187 182 169 177 177 177 182 182 175 174 170 167 162 167 168 172 166 161 162 163 163 164 177 177 171 161 153 150 134 125 114 106 104 100 95 73 62 64 39 19 4 8 358 7 5 0 356 351 348 350 348 346 343 342 345 350 352 353 1 4 10 12 11 11 13 15 14
215 211 194 184 199 196 193 195 188 188 190 192 192 194 190 189 186 191 185 175 176 175 181 184 182 180 176 176 174 171 171 169 176 176 171 166 162 162 167 177 175 172 166 157 140 132 114 105 94 105 88 86 77 47 44 57 37 7 2 355 357 3 6 2 353 351 351 346 348 343 343 345 344 345 347 353 357 360 5 9 9 10 16 15 11
208 195 181 200 199 192 193 186 189 192 195 193 190 191 191 189 190 189 183 175 179 180 187 183 179 179 177 178 175 177 173 173 170 176 171 167 168 171 170 174 176 171 157 149 136 135 119 109 116 95 78 75 70 45 38 27 11 354 3 347 354 353 355 357 354 347 342 346 339 342 342 342 345 342 341 350 356 358 1 6 8 14 15 10 5
197 193 197 205 187 191 184 190 190 194 191 194 193 194 188 187 187 187 185 181 179 184 184 180 182 182 175 179 179 178 176 176 177 172 176 173 171 172 178 178 170 164 152 149 132 120 119 124 133 97 81 69 70 57 56 48 9 356 343 346 346 348 359 354 348 355 352 338 340 341 341 345 339 346 358 2 349 352 359 3 5 7 9 6 0
203 203 205 186 191 191 188 191 188 193 194 194 193 190 187 187 186 186 181 180 180 187 186 186 184 176 179 178 182 180 178 179 177 175 174 179 176 177 179 170 170 153 145 140 129 128 123 106 90 130 101 70 75 47 44 41 8 345 329 334 338 352 356 351 355 353 341 338 346 343 348 344 350 4 11 5 359 347 357 4 4 8 9 1 357
204 201 197 190 194 190 189 190 189 193 194 192 189 188 183 186 186 185 183 180 185 189 187 179 178 182 182 180 182 183 181 181 180 179 174 177 177 175 177 174 165 152 146 144 133 140 132 117 81 76 112 121 90 81 49 36 1 332 321 329 349 4 1 351 351 341 343 354 340 339 344 353 1 10 7 3 359 351 349 357 2 5 3 357 357
206 203 198 191 194 190 191 193 193 192 190 188 187 185 185 180 181 179 179 184 190 190 182 173 187 187 179 187 182 184 183 182 180 178 177 177 175 173 172 173 163 150 142 139 141 135 130 130 116 73 96 105 81 62 22 7 352 333 332 334 353 24 350 356 354 359 348 350 349 351 349 346 359 1 1 1 0 351 349 352 357 0 357 355 360
205 202 198 198 192 189 189 194 189 186 186 184 181 177 169 167 157 164 175 185 189 189 176 185 190 183 190 186 182 186 184 183 180 177 173 173 172 174 175 176 164 152 141 137 140 140 134 124 124 105 71 81 102 86 49 306 330 352 333 337 356 4 341 348 82 352 354 2 352 350 351 352 355 358 360 5 355 356 355 355 360 357 349 351 358
202 196 197 193 192 186 189 191 189 182 177 171 169 172 167 174 172 164 182 197 190 186 192 195 183 191 191 184 186 188 183 182 181 178 174 173 173 176 177 175 168 155 150 149 157 160 151 130 129 121 110 79 52 50 18 358 1 72 17 355 31 0 349 107 103 133 11 16 4 351 354 338 8 359 8 358 354 357 355 353 354 351 349 348 353
197 190 192 195 192 191 183 191 187 178 174 174 178 175 176 173 184 193 196 188 193 191 193 195 192 195 187 187 187 187 181 180 181 175 181 175 176 171 171 179 172 165 164 167 161 153 148 141 132 114 116 86 33 0 15 49 38 22 29 12 355 8 26 67 143 116 20 17 18 10 332 359 3 13 353 349 353 351 351 350 344 344 345 347 343
202 191 195 196 195 190 189 190 177 181 184 183 181 182 184 184 183 190 189 189 187 188 196 196 196 189 186 188 188 184 182 184 181 182 178 177 172 176 180 178 173 170 160 145 147 145 138 136 139 79 37 118 80 347 332 66 29 73 9 337 346 350 18 63 122 289 353 27 21 3 319 8 4 0 349 353 341 343 341 342 342 339 337 338 334
195 196 200 193 192 190 195 183 184 183 188 183 178 188 188 190 188 186 185 186 197 196 192 183 172 184 192 190 184 184 183 185 183 184 181 184 181 176 183 176 174 160 148 153 153 149 156 158 162 136 105 54 93 6 359 46 136 144 149 82 2 9 327 4 329 289 258 209 77 332 295 12 349 352 320 326 323 331 331 338 336 332 326 325 324
200 204 197 195 192 196 190 186 187 186 183 185 186 186 183 177 170 140 164 151 171 163 154 144 174 178 198 190 190 186 184 186 185 186 186 187 182 184 173 176 175 174 163 157 162 161 161 165 153 144 133 112 81 10 2 357 121 128 22 76 185 105 332 334 331 295 17 227 140 254 295 320 358 338 354 333 309 312 310 324 326 321 316 319 322
203 200 195 193 194 195 191 187 184 185 184 182 181 169 151 134 122 95 103 92 81 139 149 183 190 196 187 193 199 182 185 188 185 189 188 187 185 182 179 178 172 174 165 160 168 172 172 170 164 153 157 143 156 145 300 23 29 225 142 108 41 20 220 260 347 280 347 325 228 291 337 322 340 324 334 300 293 292 304 323 315 311 310 316 321
209 207 195 196 191 191 187 184 181 182 184 181 174 167 172 166 159 159 168 179 182 178 192 198 192 193 201 179 167 189 188 189 188 189 191 183 185 185 180 173 175 172 174 168 155 149 168 172 182 165 152 162 140 139 130 257 17 17 55 108 151 176 182 241 75 290 329 243 330 325 260 288 300 346 315 301 299 305 319 315 309 298 300 305 308
218 194 190 194 193 187 184 182 181 181 179 177 174 172 174 179 182 184 183 184 192 204 204 198 190 193 169 180 188 184 191 188 190 189 189 187 183 182 180 181 176 172 162 155 169 179 174 174 167 163 166 147 134 132 157 175 55 1 42 73 79 82 121 118 213 357 321 318 330 282 303 280 288 266 304 278 276 290 289 289 293 287 289 289 294
197 176 192 190 189 185 179 181 180 180 180 175 178 179 179 181 185 191 193 197 200 200 192 192 179 167 180 185 182 191 189 192 187 190 188 185 182 180 180 178 176 177 170 178 178 171 158 165 170 167 154 161 156 145 158 168 152 192 110 102 86 74 79 79 114 157 182 289 305 316 305 321 302 286 283 265 283 302 304 306 296 291 287 286 292
185 192 191 187 183 178 177 177 181 180 180 179 181 185 185 184 186 188 196 206 202 200 172 165 169 172 182 184 187 189 189 193 191 187 187 186 182 181 179 180 180 179 179 173 173 171 174 166 167 166 170 168 159 150 144 173 162 159 145 102 88 92 83 87 111 109 162 214 286 275 289 318 302 284 238 269 292 283 295 300 287 285 288 296 299
195 186 177 169 174 171 176 178 185 182 180 182 184 187 188 184 191 196 199 198 193 173 162 175 177 174 188 187 188 184 190 189 193 190 187 187 183 181 183 186 185 177 176 179 171 174 175 178 178 170 164 162 162 155 160 163 162 152 158 148 139 117 87 66 103 128 142 178 264 296 311 332 325 295 263 269 264 297 293 275 279 272 269 272 275
178 170 169 171 170 174 176 181 186 181 182 185 185 189 190 191 197 197 198 197 190 176 172 182 179 179 194 191 188 190 182 193 185 193 192 185 187 185 187 188 178 177 178 175 182 180 180 177 170 165 168 165 167 157 138 149 147 154 160 166 171 170 172 170 182 177 155 164 238 279 297 312 292 306 256 197 300 286 257 258 258 274 271 267 255